DW5684 Weather Reports


Display with metric or nautical units.
time (UTC)temp
F
wind
direction
speed
MPH
gust
MPH
rain 1hr
in
rain 24hr
in
rain mn
in
humidity
%
barometer
mb
20260903182322 98 219 3.0 10.0 0.00 0.00 0.00 42 1014.4
20260903181835 98 243 3.0 6.0 0.00 0.00 0.00 42 1014.4
20260903181329 98 155 1.0 6.0 0.00 0.00 0.00 42 1014.6
20260903180822 97 192 3.0 6.0 0.00 0.00 0.00 44 1014.7
20260903180338 98 244 3.0 8.0 0.00 0.00 0.00 42 1014.8
20260903175832 98 210 1.0 6.0 0.00 0.00 0.00 43 1014.7
20260903175327 98 260 2.0 6.0 0.00 0.00 0.00 43 1014.8
20260903174825 98 218 1.0 4.0 0.00 0.00 0.00 44 1014.9
20260903174319 98 169 2.0 9.0 0.00 0.00 0.00 44 1015.0
20260903173832 98 206 3.0 9.0 0.00 0.00 0.00 44 1015.1
20260903173326 97 182 2.0 6.0 0.00 0.00 0.00 44 1015.2
20260903172820 96 214 3.0 8.0 0.00 0.00 0.00 47 1015.2
20260903172335 96 141 2.0 8.0 0.00 0.00 0.00 47 1015.2
20260903171830 96 239 1.0 7.0 0.00 0.00 0.00 46 1015.4
20260903171324 96 208 4.0 11.0 0.00 0.00 0.00 47 1015.5
20260903170819 95 58 3.0 11.0 0.00 0.00 0.00 48 1015.5
20260903170318 96 243 1.0 6.0 0.00 0.00 0.00 47 1015.5
20260903165832 95 219 3.0 8.0 0.00 0.00 0.00 47 1015.6
20260903165327 95 219 4.0 8.0 0.00 0.00 0.00 48 1015.6
20260903164821 95 300 1.0 7.0 0.00 0.00 0.00 47 1015.7
20260903164335 95 213 2.0 7.0 0.00 0.00 0.00 49 1015.9
20260903163831 95 217 1.0 8.0 0.00 0.00 0.00 51 1015.8
20260903163326 94 134 4.0 8.0 0.00 0.00 0.00 49 1015.9
20260903162824 94 120 1.0 7.0 0.00 0.00 0.00 52 1015.8
20260903162318 93 230 1.0 6.0 0.00 0.00 0.00 51 1015.9
20260903161832 94 183 3.0 6.0 0.00 0.00 0.00 50 1015.9
20260903161326 94 183 1.0 6.0 0.00 0.00 0.00 50 1016.0
20260903160821 93 169 3.0 7.0 0.00 0.00 0.00 51 1015.9
20260903160336 93 117 3.0 8.0 0.00 0.00 0.00 53 1015.9
20260903155831 92 164 4.0 7.0 0.00 0.00 0.00 53 1016.0
20260903155326 92 172 3.0 7.0 0.00 0.00 0.00 53 1016.0
20260903154825 92 188 3.0 8.0 0.00 0.00 0.00 54 1015.8
20260903154339 91 167 3.0 10.0 0.00 0.00 0.00 55 1015.8
20260903153832 91 155 4.0 10.0 0.00 0.00 0.00 54 1015.9
20260903153328 91 161 4.0 8.0 0.00 0.00 0.00 55 1015.9
20260903152822 90 205 3.0 8.0 0.00 0.00 0.00 56 1015.9
20260903152336 90 221 4.0 7.0 0.00 0.00 0.00 56 1015.9
20260903151830 90 107 3.0 8.0 0.00 0.00 0.00 57 1016.0
20260903151343 90 220 5.0 8.0 0.00 0.00 0.00 55 1015.9
20260903150820 90 203 3.0 10.0 0.00 0.00 0.00 57 1015.9
20260903150335 90 214 4.0 10.0 0.00 0.00 0.00 57 1015.9
20260903145829 90 177 4.0 11.0 0.00 0.00 0.00 56 1015.9
20260903145323 90 216 3.0 9.0 0.00 0.00 0.00 56 1015.9
20260903144858 90 213 1.0 6.0 0.00 0.00 0.00 59 1015.8
20260903144331 89 160 3.0 7.0 0.00 0.00 0.00 61 1015.9
20260903143845 88 172 3.0 7.0 0.00 0.00 0.00 61 1016.0
20260903143318 88 220 3.0 6.0 0.00 0.00 0.00 61 1016.0
20260903142833 88 149 3.0 6.0 0.00 0.00 0.00 62 1016.1
20260903142348 88 167 3.0 8.0 0.00 0.00 0.00 62 1016.1
20260903141826 88 196 3.0 8.0 0.00 0.00 0.00 62 1016.2
20260903141321 88 229 2.0 6.0 0.00 0.00 0.00 63 1016.2
20260903140835 88 171 2.0 5.0 0.00 0.00 0.00 62 1016.2
20260903140350 88 202 1.0 5.0 0.00 0.00 0.00 63 1016.3
20260903135823 87 168 2.0 5.0 0.00 0.00 0.00 64 1016.3
20260903135319 87 224 0.0 4.0 0.00 0.00 0.00 65 1016.3
20260903134833 86 207 1.0 5.0 0.00 0.00 0.00 66 1016.4
20260903134327 86 167 2.0 5.0 0.00 0.00 0.00 67 1016.4
20260903133825 85 187 2.0 5.0 0.00 0.00 0.00 67 1016.4
20260903133319 85 98 1.0 4.0 0.00 0.00 0.00 67 1016.4
20260903132834 85 166 1.0 4.0 0.00 0.00 0.00 67 1016.4
20260903132347 85 205 3.0 4.0 0.00 0.00 0.00 68 1016.4
20260903131821 85 141 2.0 4.0 0.00 0.00 0.00 68 1016.4
20260903131355 84 153 0.0 1.0 0.00 0.00 0.00 71 1016.3
20260903130828 83 155 0.0 2.0 0.00 0.00 0.00 71 1016.3
20260903130323 83 122 0.0 2.0 0.00 0.00 0.00 72 1016.4
20260903125836 82 84 0.0 0.0 0.00 0.00 0.00 74 1016.4
20260903125335 81 85 0.0 2.0 0.00 0.00 0.00 75 1016.3
20260903124830 79 71 0.0 1.0 0.00 0.00 0.00 78 1016.3
20260903124325 77 98 0.0 1.0 0.00 0.00 0.00 81 1016.2
20260903123840 75 74 0.0 1.0 0.00 0.00 0.00 84 1016.3
20260903123354 75 203 0.0 0.0 0.00 0.00 0.00 84 1016.2
20260903122828 75 158 0.0 0.0 0.00 0.00 0.00 84 1016.3
20260903122322 74 158 0.0 0.0 0.00 0.00 0.00 85 1016.3
20260903121817 74 158 0.0 0.0 0.00 0.00 0.00 85 1016.3
20260903121332 74 105 0.0 0.0 0.00 0.00 0.00 85 1016.3
20260903120851 74 105 0.0 0.0 0.00 0.00 0.00 85 1016.2
20260903120325 74 105 0.0 0.0 0.00 0.00 0.00 85 1016.2
20260903115839 74 105 0.0 0.0 0.00 0.00 0.00 85 1016.1
20260903115332 74 105 0.0 0.0 0.00 0.00 0.00 85 1016.1
20260903114827 74 105 0.0 0.0 0.00 0.00 0.00 85 1016.0
20260903114322 74 103 0.0 0.0 0.00 0.00 0.00 84 1016.0
20260903113856 74 103 0.0 0.0 0.00 0.00 0.00 84 1016.0
20260903113349 74 105 0.0 0.0 0.00 0.00 0.00 84 1015.9
20260903112823 74 105 0.0 0.0 0.00 0.00 0.00 84 1015.9
20260903112321 74 105 0.0 0.0 0.00 0.00 0.00 84 1015.9
20260903111836 74 109 0.0 2.0 0.00 0.00 0.00 85 1015.9
20260903111330 74 109 0.0 2.0 0.00 0.00 0.00 85 1015.9
20260903110825 73 106 0.0 0.0 0.00 0.00 0.00 85 1015.9
20260903110320 73 152 0.0 0.0 0.00 0.00 0.00 85 1015.8
20260903105855 74 152 0.0 0.0 0.00 0.00 0.00 85 1015.8
20260903105329 74 206 0.0 0.0 0.00 0.00 0.00 85 1015.9
20260903104844 74 206 0.0 0.0 0.00 0.00 0.00 84 1015.8
20260903104318 74 206 0.0 0.0 0.00 0.00 0.00 84 1015.8
20260903103837 74 206 0.0 0.0 0.00 0.00 0.00 83 1015.8
20260903103332 75 210 0.0 0.0 0.00 0.00 0.00 83 1015.7
20260903102848 75 211 0.0 0.0 0.00 0.00 0.00 83 1015.6
20260903102342 75 210 0.0 0.0 0.00 0.00 0.00 82 1015.7
20260903101837 75 211 0.0 0.0 0.00 0.00 0.00 81 1015.6
20260903101332 75 215 0.0 0.0 0.00 0.00 0.00 81 1015.6
20260903100827 75 215 0.0 0.0 0.00 0.00 0.00 81 1015.6
20260903100320 76 215 0.0 0.0 0.00 0.00 0.00 80 1015.5
20260903095818 76 215 0.0 1.0 0.00 0.00 0.00 80 1015.5
20260903095333 76 217 0.0 1.0 0.00 0.00 0.00 80 1015.6
20260903094828 76 166 0.0 0.0 0.00 0.00 0.00 80 1015.6
20260903094342 76 171 0.0 0.0 0.00 0.00 0.00 80 1015.5
20260903093836 76 176 0.0 0.0 0.00 0.00 0.00 79 1015.5
20260903093331 77 179 0.0 0.0 0.00 0.00 0.00 79 1015.5
20260903092826 77 180 0.0 0.0 0.00 0.00 0.00 79 1015.5
20260903092322 77 180 0.0 0.0 0.00 0.00 0.00 79 1015.5
20260903091836 77 166 0.0 0.0 0.00 0.00 0.00 78 1015.5
20260903091336 77 166 0.0 0.0 0.00 0.00 0.00 78 1015.5
20260903090831 77 167 0.0 0.0 0.00 0.00 0.00 78 1015.5
20260903090326 77 165 0.0 0.0 0.00 0.00 0.00 77 1015.5
20260903085822 77 162 0.0 0.0 0.00 0.00 0.00 77 1015.5
20260903085337 78 162 0.0 0.0 0.00 0.00 0.00 77 1015.4
20260903084831 78 191 0.0 0.0 0.00 0.00 0.00 77 1015.3
20260903084326 78 122 0.0 0.0 0.00 0.00 0.00 77 1015.3
20260903083826 78 94 0.0 0.0 0.00 0.00 0.00 77 1015.3
20260903083340 78 139 0.0 1.0 0.00 0.00 0.00 76 1015.3
20260903082834 78 137 0.0 1.0 0.00 0.00 0.00 76 1015.3
20260903082328 78 64 0.0 0.0 0.00 0.00 0.00 76 1015.3
20260903081822 78 72 0.0 0.0 0.00 0.00 0.00 76 1015.2
20260903081336 79 148 0.0 0.0 0.00 0.00 0.00 75 1015.2
20260903080851 79 150 0.0 0.0 0.00 0.00 0.00 75 1015.2
20260903080323 79 56 0.0 1.0 0.00 0.00 0.00 75 1015.1
20260903075818 79 213 0.0 1.0 0.00 0.00 0.00 75 1015.1
20260903075333 79 132 0.0 1.0 0.00 0.00 0.00 75 1015.1
20260903074833 78 130 0.0 1.0 0.00 0.00 0.00 75 1015.1
20260903074328 78 143 0.0 0.0 0.00 0.00 0.00 76 1015.2
20260903073821 78 90 0.0 0.0 0.00 0.00 0.00 76 1015.1
20260903073336 78 72 0.0 0.0 0.00 0.00 0.00 76 1015.1
20260903072829 78 137 0.0 0.0 0.00 0.00 0.00 76 1015.0
20260903072324 78 139 0.0 0.0 0.00 0.00 0.00 75 1015.0
20260903071818 79 140 0.0 0.0 0.00 0.00 0.00 74 1015.1
20260903071331 79 140 0.0 0.0 0.00 0.00 0.00 74 1015.1
20260903070823 79 138 0.0 1.0 0.00 0.00 0.00 74 1015.1
20260903070322 79 141 0.0 1.0 0.00 0.00 0.00 73 1015.0
20260903065837 79 153 0.0 0.0 0.00 0.00 0.00 73 1015.0
20260903065351 79 152 0.0 0.0 0.00 0.00 0.00 73 1015.0
20260903064825 79 160 0.0 1.0 0.00 0.00 0.00 73 1015.1
20260903064401 79 184 0.0 1.0 0.00 0.00 0.00 73 1015.1
20260903063837 80 115 0.0 0.0 0.00 0.00 0.00 72 1015.1
20260903063331 80 110 0.0 0.0 0.00 0.00 0.00 72 1015.1
20260903062846 80 139 0.0 0.0 0.00 0.00 0.00 71 1015.1
20260903062341 80 157 0.0 0.0 0.00 0.00 0.00 71 1015.1
20260903061837 81 157 0.0 1.0 0.00 0.00 0.00 70 1015.1
20260903061332 81 154 0.0 4.0 0.00 0.00 0.00 70 1015.0
20260903060832 81 150 1.0 5.0 0.00 0.00 0.00 70 1015.0
20260903060327 81 142 1.0 5.0 0.00 0.00 0.00 69 1015.0
20260903055821 81 143 0.0 4.0 0.00 0.00 0.00 69 1015.0
20260903055336 81 155 0.0 0.0 0.00 0.00 0.00 68 1015.0
20260903054851 82 157 0.0 2.0 0.00 0.00 0.00 67 1014.9
20260903053819 82 182 0.0 3.0 0.00 0.00 0.00 66 1014.9
20260903053334 83 174 0.0 3.0 0.00 0.00 0.00 66 1014.9
20260903052828 83 159 0.0 6.0 0.00 0.00 0.00 65 1014.9
20260903052328 83 179 1.0 5.0 0.00 0.00 0.00 65 1014.9
20260903051821 83 164 1.0 5.0 0.00 0.00 0.00 64 1014.9
20260903051336 83 187 1.0 4.0 0.00 0.00 0.00 64 1014.8
20260903050832 83 160 1.0 5.0 0.00 0.00 0.00 64 1014.8
20260903050323 83 186 1.0 4.0 0.00 0.00 0.00 64 1014.8
20260903045837 84 163 0.0 4.0 0.00 0.00 0.00 64 1014.8
20260903045332 84 165 0.0 4.0 0.00 0.00 0.00 63 1014.8
20260903044828 84 174 1.0 4.0 0.00 0.00 0.00 63 1014.8
20260903044327 84 149 0.0 3.0 0.00 0.00 0.00 63 1014.8
20260903043843 84 182 1.0 3.0 0.00 0.00 0.00 63 1014.8
20260903043337 84 186 1.0 5.0 0.00 0.00 0.00 62 1014.8
20260903042833 84 186 2.0 5.0 0.00 0.00 0.00 62 1014.7
20260903042328 84 177 2.0 5.0 0.00 0.00 0.00 62 1014.6
20260903041822 84 174 2.0 5.0 0.00 0.00 0.00 62 1014.7
20260903041356 84 164 2.0 5.0 0.00 0.00 0.00 62 1014.8
20260903040828 85 146 0.0 6.0 0.00 0.00 0.00 61 1014.8
20260903040326 85 125 2.0 6.0 0.00 0.00 0.00 61 1014.8
20260903035819 85 216 1.0 4.0 0.00 0.00 0.00 61 1014.7
20260903035334 85 188 2.0 5.0 0.00 0.00 0.00 60 1014.7
20260903034829 85 171 2.0 5.0 0.00 0.00 0.00 60 1014.7
20260903034324 85 158 2.0 6.0 0.00 0.00 0.00 60 1014.7
20260903033857 85 139 2.0 6.0 0.00 0.00 0.00 60 1014.7
20260903033332 84 121 2.0 4.0 0.00 0.00 0.00 60 1014.7
20260903032825 84 203 1.0 4.0 0.00 0.00 0.00 60 1014.6
20260903032323 84 175 1.0 3.0 0.00 0.00 0.00 60 1014.7
20260903031818 84 195 1.0 2.0 0.00 0.00 0.00 60 1014.7
20260903031332 84 168 0.0 3.0 0.00 0.00 0.00 60 1014.6
20260903030827 84 164 1.0 4.0 0.00 0.00 0.00 60 1014.6
20260903030322 83 177 1.0 4.0 0.00 0.00 0.00 61 1014.6
20260903025837 82 164 0.0 0.0 0.00 0.00 0.00 63 1014.5
20260903025331 81 146 0.0 0.0 0.00 0.00 0.00 64 1014.5
20260903024827 80 122 0.0 0.0 0.00 0.00 0.00 64 1014.5
20260903024325 80 122 0.0 0.0 0.00 0.00 0.00 64 1014.4
20260903023841 80 122 0.0 0.0 0.00 0.00 0.00 64 1014.4
20260903023354 81 122 0.0 0.0 0.00 0.00 0.00 64 1014.4
20260903022828 81 122 0.0 0.0 0.00 0.00 0.00 64 1014.3
20260903022323 81 122 0.0 0.0 0.00 0.00 0.00 63 1014.3
20260903021817 81 122 0.0 0.0 0.00 0.00 0.00 64 1014.2
20260903021332 81 122 0.0 0.0 0.00 0.00 0.00 66 1014.2
20260903020847 81 122 0.0 0.0 0.00 0.00 0.00 64 1014.1
20260903020322 81 122 0.0 0.0 0.00 0.00 0.00 64 1014.1
20260903015820 81 122 0.0 0.0 0.00 0.00 0.00 63 1014.0
20260903015335 81 122 0.0 0.0 0.00 0.00 0.00 63 1013.9
20260903014829 82 122 0.0 0.0 0.00 0.00 0.00 63 1013.9
20260903014325 82 122 0.0 0.0 0.00 0.00 0.00 62 1013.8
20260903013819 83 122 0.0 0.0 0.00 0.00 0.00 61 1013.7
20260903013333 83 122 0.0 0.0 0.00 0.00 0.00 61 1013.7
20260903012827 84 122 0.0 0.0 0.00 0.00 0.00 59 1013.6
20260903012327 84 122 0.0 0.0 0.00 0.00 0.00 59 1013.5
20260903011820 85 122 0.0 0.0 0.00 0.00 0.00 58 1013.5
20260903011335 85 122 0.0 0.0 0.00 0.00 0.00 57 1013.4
20260903010830 86 122 0.0 0.0 0.00 0.00 0.00 55 1013.4
20260903010321 87 122 0.0 0.0 0.00 0.00 0.00 54 1013.4
20260903005835 88 122 0.0 0.0 0.00 0.00 0.00 53 1013.4
20260903005329 89 122 0.0 0.0 0.00 0.00 0.00 52 1013.4
20260903004824 90 122 0.0 0.0 0.00 0.00 0.00 50 1013.3
20260903004319 91 78 0.0 0.0 0.00 0.00 0.00 49 1013.3
20260903003833 91 78 0.0 0.0 0.00 0.00 0.00 47 1013.3
20260903003349 92 81 0.0 0.0 0.00 0.00 0.00 47 1013.3
20260903002822 93 79 0.0 0.0 0.00 0.00 0.00 46 1013.3
20260903002336 93 78 0.0 0.0 0.00 0.00 0.00 45 1013.3
20260903001829 94 185 0.0 2.0 0.00 0.00 0.00 45 1013.3
20260903001324 94 166 0.0 5.0 0.00 0.00 0.00 43 1013.3
20260903000819 95 94 1.0 5.0 0.00 0.00 0.00 43 1013.3
20260902235832 95 68 0.0 4.0 0.00 0.00 0.00 43 1013.3
20260902235326 96 67 1.0 5.0 0.00 0.00 0.00 42 1013.3
20260902234819 96 169 2.0 5.0 0.00 0.00 0.00 41 1013.3
20260902234354 96 159 0.0 5.0 0.00 0.00 0.00 41 1013.3
20260902233828 96 160 0.0 1.0 0.00 0.00 0.00 39 1013.3
20260902233343 97 164 0.0 1.0 0.00 0.00 0.00 38 1013.3
20260902232837 97 41 0.0 3.0 0.00 0.00 0.00 38 1013.4
20260902232332 97 165 1.0 3.0 0.00 0.00 0.00 37 1013.4
20260902231825 97 181 0.0 2.0 0.00 0.00 0.00 38 1013.4
20260902231343 98 165 0.0 4.0 0.00 0.00 0.00 39 1013.4
20260902230836 98 224 1.0 4.0 0.00 0.00 0.00 38 1013.4
20260902230329 98 210 0.0 5.0 0.00 0.00 0.00 38 1013.4
20260902225823 99 176 2.0 5.0 0.00 0.00 0.00 38 1013.5
20260902225318 99 167 2.0 6.0 0.00 0.00 0.00 38 1013.5
20260902224833 99 165 2.0 6.0 0.00 0.00 0.00 38 1013.6
20260902224328 99 133 2.0 6.0 0.00 0.00 0.00 37 1013.5
20260902223823 99 83 2.0 6.0 0.00 0.00 0.00 37 1013.6
20260902223322 99 175 1.0 6.0 0.00 0.00 0.00 37 1013.6
20260902222856 99 103 1.0 6.0 0.00 0.00 0.00 37 1013.7
20260902222330 99 103 0.0 5.0 0.00 0.00 0.00 37 1013.7
20260902221825 99 118 1.0 5.0 0.00 0.00 0.00 37 1013.7
20260902221339 99 131 0.0 3.0 0.00 0.00 0.00 37 1013.8
20260902220833 100 118 0.0 4.0 0.00 0.00 0.00 37 1013.8
20260902220327 100 194 0.0 5.0 0.00 0.00 0.00 37 1013.8
20260902215822 101 49 1.0 5.0 0.00 0.00 0.00 37 1013.8
20260902215336 100 212 1.0 3.0 0.00 0.00 0.00 37 1013.7
20260902214835 100 175 0.0 6.0 0.00 0.00 0.00 36 1013.8
20260902214329 102 214 0.0 4.0 0.00 0.00 0.00 34 1014.0
20260902213823 103 228 0.0 5.0 0.00 0.00 0.00 35 1014.0
20260902213356 103 215 1.0 5.0 0.00 0.00 0.00 35 1014.0
20260902212850 102 218 0.0 3.0 0.00 0.00 0.00 36 1014.0
20260902212324 102 176 1.0 3.0 0.00 0.00 0.00 38 1014.1
20260902211819 101 230 0.0 1.0 0.00 0.00 0.00 37 1014.1
20260902211334 100 185 0.0 0.0 0.00 0.00 0.00 40 1014.2
20260902210848 100 6 0.0 4.0 0.00 0.00 0.00 37 1014.2
20260902210325 101 169 0.0 5.0 0.00 0.00 0.00 37 1014.3
20260902205819 103 212 0.0 5.0 0.00 0.00 0.00 35 1014.3
20260902205334 102 211 1.0 5.0 0.00 0.00 0.00 37 1014.4
20260902204829 101 165 0.0 5.0 0.00 0.00 0.00 38 1014.4
20260902204324 101 51 0.0 6.0 0.00 0.00 0.00 36 1014.4
20260902203838 102 141 1.0 6.0 0.00 0.00 0.00 38 1014.6
20260902203332 103 185 0.0 6.0 0.00 0.00 0.00 38 1014.7
20260902202827 102 169 0.0 5.0 0.00 0.00 0.00 37 1014.8
20260902202326 102 198 2.0 4.0 0.00 0.00 0.00 38 1014.8
20260902201839 102 257 1.0 7.0 0.00 0.00 0.00 36 1014.9
20260902201333 102 133 2.0 7.0 0.00 0.00 0.00 37 1014.9
20260902200826 102 215 0.0 2.0 0.00 0.00 0.00 36 1015.0
20260902200339 101 102 0.0 4.0 0.00 0.00 0.00 37 1015.0
20260902195831 100 217 0.0 6.0 0.00 0.00 0.00 37 1015.1
20260902195346 102 234 3.0 6.0 0.00 0.00 0.00 35 1015.2
20260902194820 102 214 1.0 6.0 0.00 0.00 0.00 38 1015.3
20260902194335 101 196 3.0 6.0 0.00 0.00 0.00 38 1015.4
20260902193829 101 212 1.0 6.0 0.00 0.00 0.00 38 1015.4
20260902193326 101 237 3.0 6.0 0.00 0.00 0.00 39 1015.5
20260902192820 102 229 1.0 6.0 0.00 0.00 0.00 38 1015.5
20260902192334 101 143 3.0 6.0 0.00 0.00 0.00 39 1015.7
20260902191829 101 240 0.0 1.0 0.00 0.00 0.00 39 1015.6
20260902191324 101 214 0.0 4.0 0.00 0.00 0.00 39 1015.9
20260902190836 101 180 1.0 5.0 0.00 0.00 0.00 41 1015.9
20260902190330 101 214 4.0 5.0 0.00 0.00 0.00 39 1016.0
20260902185823 102 189 1.0 4.0 0.00 0.00 0.00 38 1016.1
20260902185323 101 176 0.0 8.0 0.00 0.00 0.00 41 1016.0
20260902184818 101 152 0.0 8.0 0.00 0.00 0.00 40 1016.1
20260902184333 100 195 2.0 8.0 0.00 0.00 0.00 40 1016.2
20260902183827 100 217 2.0 6.0 0.00 0.00 0.00 41 1016.3
20260902183342 100 185 1.0 6.0 0.00 0.00 0.00 41 1016.4
20260902182836 100 143 2.0 6.0 0.00 0.00 0.00 42 1016.4